Year,Month,Day,Hour,Minute,Value (Times are PST for temperature in C)
2009,07,03,00,00,15.00
2009,07,03,00,01,15.00
2009,07,03,00,02,14.90
2009,07,03,00,03,14.90
2009,07,03,00,04,14.90
2009,07,03,00,05,14.90
2009,07,03,00,06,14.90
2009,07,03,00,07,14.90
2009,07,03,00,08,14.90
2009,07,03,00,09,14.90
2009,07,03,00,10,14.90
2009,07,03,00,11,14.90
2009,07,03,00,12,14.90
2009,07,03,00,13,14.90
2009,07,03,00,14,14.80
2009,07,03,00,15,14.80
2009,07,03,00,16,14.80
2009,07,03,00,17,14.80
2009,07,03,00,18,14.80
2009,07,03,00,19,14.80
2009,07,03,00,20,14.80
2009,07,03,00,21,14.80
2009,07,03,00,22,14.80
2009,07,03,00,23,14.70
2009,07,03,00,24,14.70
2009,07,03,00,25,14.70
2009,07,03,00,26,14.70
2009,07,03,00,27,14.70
2009,07,03,00,28,14.70
2009,07,03,00,29,14.60
2009,07,03,00,30,14.60
2009,07,03,00,31,14.60
2009,07,03,00,32,14.60
2009,07,03,00,33,14.60
2009,07,03,00,34,14.50
2009,07,03,00,35,14.50
2009,07,03,00,36,14.50
2009,07,03,00,37,14.50
2009,07,03,00,38,14.50
2009,07,03,00,39,14.50
2009,07,03,00,40,14.40
2009,07,03,00,41,14.40
2009,07,03,00,42,14.40
2009,07,03,00,43,14.40
2009,07,03,00,44,14.40
2009,07,03,00,45,14.40
2009,07,03,00,46,14.30
2009,07,03,00,47,14.30
2009,07,03,00,48,14.20
2009,07,03,00,49,14.20
2009,07,03,00,50,14.20
2009,07,03,00,51,14.20
2009,07,03,00,52,14.20
2009,07,03,00,53,14.10
2009,07,03,00,54,14.10
2009,07,03,00,55,14.00
2009,07,03,00,56,14.00
2009,07,03,00,57,14.00
2009,07,03,00,58,14.00
2009,07,03,00,59,14.00
2009,07,03,01,00,13.90
2009,07,03,01,01,13.90
2009,07,03,01,02,13.90
2009,07,03,01,03,13.90
2009,07,03,01,04,13.90
2009,07,03,01,05,13.90
2009,07,03,01,06,13.90
2009,07,03,01,07,13.90
2009,07,03,01,08,13.90
2009,07,03,01,09,13.90
2009,07,03,01,10,13.90
2009,07,03,01,11,13.90
2009,07,03,01,12,13.90
2009,07,03,01,13,13.90
2009,07,03,01,14,13.90
2009,07,03,01,15,13.90
2009,07,03,01,16,13.90
2009,07,03,01,17,13.90
2009,07,03,01,18,13.90
2009,07,03,01,19,13.90
2009,07,03,01,20,13.90
2009,07,03,01,21,13.80
2009,07,03,01,22,13.80
2009,07,03,01,23,13.80
2009,07,03,01,24,13.80
2009,07,03,01,25,13.80
2009,07,03,01,26,13.70
2009,07,03,01,27,13.70
2009,07,03,01,28,13.70
2009,07,03,01,29,13.70
2009,07,03,01,30,13.70
2009,07,03,01,31,13.60
2009,07,03,01,32,13.60
2009,07,03,01,33,13.60
2009,07,03,01,34,13.50
2009,07,03,01,35,13.50
2009,07,03,01,36,13.50
2009,07,03,01,37,13.50
2009,07,03,01,38,13.50
2009,07,03,01,39,13.40
2009,07,03,01,40,13.40
2009,07,03,01,41,13.40
2009,07,03,01,42,13.40
2009,07,03,01,43,13.40
2009,07,03,01,44,13.40
2009,07,03,01,45,13.40
2009,07,03,01,46,13.30
2009,07,03,01,47,13.30
2009,07,03,01,48,13.30
2009,07,03,01,49,13.30
2009,07,03,01,50,13.30
2009,07,03,01,51,13.30
2009,07,03,01,52,13.20
2009,07,03,01,53,13.20
2009,07,03,01,54,13.20
2009,07,03,01,55,13.20
2009,07,03,01,56,13.20
2009,07,03,01,57,13.20
2009,07,03,01,58,13.20
2009,07,03,01,59,13.20
2009,07,03,02,00,13.20
2009,07,03,02,01,13.20
2009,07,03,02,02,13.20
2009,07,03,02,03,13.20
2009,07,03,02,04,13.20
2009,07,03,02,05,13.20
2009,07,03,02,06,13.20
2009,07,03,02,07,13.20
2009,07,03,02,08,13.20
2009,07,03,02,09,13.10
2009,07,03,02,10,13.10
2009,07,03,02,11,13.10
2009,07,03,02,12,13.10
2009,07,03,02,13,13.00
2009,07,03,02,14,13.00
2009,07,03,02,15,13.00
2009,07,03,02,16,13.00
2009,07,03,02,17,13.00
2009,07,03,02,18,13.00
2009,07,03,02,19,13.00
2009,07,03,02,20,12.90
2009,07,03,02,21,12.90
2009,07,03,02,22,12.90
2009,07,03,02,23,12.90
2009,07,03,02,24,12.90
2009,07,03,02,25,12.90
2009,07,03,02,26,12.90
2009,07,03,02,27,12.90
2009,07,03,02,28,12.90
2009,07,03,02,29,12.90
2009,07,03,02,30,12.90
2009,07,03,02,31,12.90
2009,07,03,02,32,12.90
2009,07,03,02,33,12.90
2009,07,03,02,34,12.90
2009,07,03,02,35,12.90
2009,07,03,02,36,12.90
2009,07,03,02,37,12.90
2009,07,03,02,38,12.90
2009,07,03,02,39,12.90
2009,07,03,02,40,12.90
2009,07,03,02,41,12.90
2009,07,03,02,42,12.90
2009,07,03,02,43,12.90
2009,07,03,02,44,12.90
2009,07,03,02,45,12.90
2009,07,03,02,46,12.90
2009,07,03,02,47,12.80
2009,07,03,02,48,12.80
2009,07,03,02,49,12.80
2009,07,03,02,50,12.80
2009,07,03,02,51,12.80
2009,07,03,02,52,12.80
2009,07,03,02,53,12.80
2009,07,03,02,54,12.80
2009,07,03,02,55,12.80
2009,07,03,02,56,12.80
2009,07,03,02,57,12.80
2009,07,03,02,58,12.80
2009,07,03,02,59,12.70
2009,07,03,03,00,12.70
2009,07,03,03,01,12.70
2009,07,03,03,02,12.70
2009,07,03,03,03,12.70
2009,07,03,03,04,12.70
2009,07,03,03,05,12.70
2009,07,03,03,06,12.70
2009,07,03,03,07,12.60
2009,07,03,03,08,12.60
2009,07,03,03,09,12.60
2009,07,03,03,10,12.60
2009,07,03,03,11,12.60
2009,07,03,03,12,12.60
2009,07,03,03,13,12.60
2009,07,03,03,14,12.50
2009,07,03,03,15,12.50
2009,07,03,03,16,12.50
2009,07,03,03,17,12.40
2009,07,03,03,18,12.40
2009,07,03,03,19,12.40
2009,07,03,03,20,12.40
2009,07,03,03,21,12.30
2009,07,03,03,22,12.30
2009,07,03,03,23,12.30
2009,07,03,03,24,12.30
2009,07,03,03,25,12.30
2009,07,03,03,26,12.30
2009,07,03,03,27,12.30
2009,07,03,03,28,12.20
2009,07,03,03,29,12.20
2009,07,03,03,30,12.20
2009,07,03,03,31,12.20
2009,07,03,03,32,12.20
2009,07,03,03,33,12.10
2009,07,03,03,34,12.10
2009,07,03,03,35,12.10
2009,07,03,03,36,12.10
2009,07,03,03,37,12.10
2009,07,03,03,38,12.10
2009,07,03,03,39,12.10
2009,07,03,03,40,12.10
2009,07,03,03,41,12.10
2009,07,03,03,42,12.10
2009,07,03,03,43,12.10
2009,07,03,03,44,12.00
2009,07,03,03,45,12.00
2009,07,03,03,46,12.00
2009,07,03,03,47,12.00
2009,07,03,03,48,12.00
2009,07,03,03,49,12.00
2009,07,03,03,50,12.00
2009,07,03,03,51,12.00
2009,07,03,03,52,11.90
2009,07,03,03,53,11.90
2009,07,03,03,54,11.90
2009,07,03,03,55,11.90
2009,07,03,03,56,11.90
2009,07,03,03,57,11.90
2009,07,03,03,58,11.90
2009,07,03,03,59,11.90
2009,07,03,04,00,11.90
2009,07,03,04,01,11.90
2009,07,03,04,02,11.90
2009,07,03,04,03,11.90
2009,07,03,04,04,11.80
2009,07,03,04,05,11.80
2009,07,03,04,06,11.80
2009,07,03,04,07,11.80
2009,07,03,04,08,11.80
2009,07,03,04,09,11.80
2009,07,03,04,10,11.70
2009,07,03,04,11,11.70
2009,07,03,04,12,11.70
2009,07,03,04,13,11.70
2009,07,03,04,14,11.60
2009,07,03,04,15,11.60
2009,07,03,04,16,11.60
2009,07,03,04,17,11.60
2009,07,03,04,18,11.60
2009,07,03,04,19,11.60
2009,07,03,04,20,11.60
2009,07,03,04,21,11.60
2009,07,03,04,22,11.60
2009,07,03,04,23,11.60
2009,07,03,04,24,11.70
2009,07,03,04,25,11.70
2009,07,03,04,26,11.70
2009,07,03,04,27,11.70
2009,07,03,04,28,11.60
2009,07,03,04,29,11.60
2009,07,03,04,30,11.60
2009,07,03,04,31,11.60
2009,07,03,04,32,11.60
2009,07,03,04,33,11.60
2009,07,03,04,34,11.60
2009,07,03,04,35,11.60
2009,07,03,04,36,11.50
2009,07,03,04,37,11.40
2009,07,03,04,38,11.40
2009,07,03,04,39,11.40
2009,07,03,04,40,11.40
2009,07,03,04,41,11.40
2009,07,03,04,42,11.40
2009,07,03,04,43,11.40
2009,07,03,04,44,11.40
2009,07,03,04,45,11.40
2009,07,03,04,46,11.40
2009,07,03,04,47,11.40
2009,07,03,04,48,11.30
2009,07,03,04,49,11.30
2009,07,03,04,50,11.30
2009,07,03,04,51,11.30
2009,07,03,04,52,11.40
2009,07,03,04,53,11.40
2009,07,03,04,54,11.40
2009,07,03,04,55,11.40
2009,07,03,04,56,11.40
2009,07,03,04,57,11.40
2009,07,03,04,58,11.40
2009,07,03,04,59,11.40
2009,07,03,05,00,11.40
2009,07,03,05,01,11.30
2009,07,03,05,02,11.30
2009,07,03,05,03,11.30
2009,07,03,05,04,11.30
2009,07,03,05,05,11.30
2009,07,03,05,06,11.20
2009,07,03,05,07,11.20
2009,07,03,05,08,11.20
2009,07,03,05,09,11.20
2009,07,03,05,10,11.10
2009,07,03,05,11,11.10
2009,07,03,05,12,11.10
2009,07,03,05,13,11.10
2009,07,03,05,14,11.10
2009,07,03,05,15,11.10
2009,07,03,05,16,11.10
2009,07,03,05,17,11.00
2009,07,03,05,18,10.90
2009,07,03,05,19,10.90
2009,07,03,05,20,10.90
2009,07,03,05,21,10.90
2009,07,03,05,22,10.90
2009,07,03,05,23,10.90
2009,07,03,05,24,10.90
2009,07,03,05,25,10.90
2009,07,03,05,26,10.80
2009,07,03,05,27,10.80
2009,07,03,05,28,10.80
2009,07,03,05,29,10.80
2009,07,03,05,30,10.80
2009,07,03,05,31,10.80
2009,07,03,05,32,10.80
2009,07,03,05,33,10.80
2009,07,03,05,34,10.80
2009,07,03,05,35,10.80
2009,07,03,05,36,10.90
2009,07,03,05,37,10.90
2009,07,03,05,38,10.90
2009,07,03,05,39,10.90
2009,07,03,05,40,10.90
2009,07,03,05,41,10.90
2009,07,03,05,42,10.90
2009,07,03,05,43,11.10
2009,07,03,05,44,11.10
2009,07,03,05,45,11.10
2009,07,03,05,46,11.10
2009,07,03,05,47,11.10
2009,07,03,05,48,11.20
2009,07,03,05,49,11.20
2009,07,03,05,50,11.20
2009,07,03,05,51,11.30
2009,07,03,05,52,11.30
2009,07,03,05,53,11.30
2009,07,03,05,54,11.40
2009,07,03,05,55,11.40
2009,07,03,05,56,11.40
2009,07,03,05,57,11.40
2009,07,03,05,58,11.40
2009,07,03,05,59,11.50
2009,07,03,06,00,11.60
2009,07,03,06,01,11.60
2009,07,03,06,02,11.60
2009,07,03,06,03,11.70
2009,07,03,06,04,11.70
2009,07,03,06,05,11.70
2009,07,03,06,06,11.80
2009,07,03,06,07,11.80
2009,07,03,06,08,11.80
2009,07,03,06,09,11.90
2009,07,03,06,10,11.90
2009,07,03,06,11,12.00
2009,07,03,06,12,12.10
2009,07,03,06,13,12.10
2009,07,03,06,14,12.20
2009,07,03,06,15,12.20
2009,07,03,06,16,12.30
2009,07,03,06,17,12.30
2009,07,03,06,18,12.40
2009,07,03,06,19,12.40
2009,07,03,06,20,12.50
2009,07,03,06,21,12.50
2009,07,03,06,22,12.60
2009,07,03,06,23,12.70
2009,07,03,06,24,12.80
2009,07,03,06,25,12.80
2009,07,03,06,26,12.80
2009,07,03,06,27,12.90
2009,07,03,06,28,12.90
2009,07,03,06,29,13.00
2009,07,03,06,30,13.00
2009,07,03,06,31,13.10
2009,07,03,06,32,13.20
2009,07,03,06,33,13.20
2009,07,03,06,34,13.30
2009,07,03,06,35,13.30
2009,07,03,06,36,13.30
2009,07,03,06,37,13.40
2009,07,03,06,38,13.50
2009,07,03,06,39,13.50
2009,07,03,06,40,13.60
2009,07,03,06,41,13.70
2009,07,03,06,42,13.80
2009,07,03,06,43,13.90
2009,07,03,06,44,14.00
2009,07,03,06,45,14.10
2009,07,03,06,46,14.20
2009,07,03,06,47,14.20
2009,07,03,06,48,14.30
2009,07,03,06,49,14.40
2009,07,03,06,50,14.50
2009,07,03,06,51,14.60
2009,07,03,06,52,14.70
2009,07,03,06,53,14.80
2009,07,03,06,54,14.80
2009,07,03,06,55,14.90
2009,07,03,06,56,14.90
2009,07,03,06,57,15.00
2009,07,03,06,58,15.10
2009,07,03,06,59,15.20
2009,07,03,07,00,15.20
2009,07,03,07,01,15.30
2009,07,03,07,02,15.30
2009,07,03,07,03,15.30
2009,07,03,07,04,15.30
2009,07,03,07,05,15.40
2009,07,03,07,06,15.40
2009,07,03,07,07,15.50
2009,07,03,07,08,15.50
2009,07,03,07,09,15.50
2009,07,03,07,10,15.60
2009,07,03,07,11,15.60
2009,07,03,07,12,15.70
2009,07,03,07,13,15.80
2009,07,03,07,14,15.80
2009,07,03,07,15,15.90
2009,07,03,07,16,15.90
2009,07,03,07,17,16.00
2009,07,03,07,18,16.10
2009,07,03,07,19,16.10
2009,07,03,07,20,16.10
2009,07,03,07,21,16.10
2009,07,03,07,22,16.20
2009,07,03,07,23,16.20
2009,07,03,07,24,16.30
2009,07,03,07,25,16.40
2009,07,03,07,26,16.50
2009,07,03,07,27,16.60
2009,07,03,07,28,16.70
2009,07,03,07,29,16.70
2009,07,03,07,30,16.80
2009,07,03,07,31,16.90
2009,07,03,07,32,17.00
2009,07,03,07,33,17.00
2009,07,03,07,34,17.10
2009,07,03,07,35,17.10
2009,07,03,07,36,17.20
2009,07,03,07,37,17.20
2009,07,03,07,38,17.30
2009,07,03,07,39,17.50
2009,07,03,07,40,17.60
2009,07,03,07,41,17.70
2009,07,03,07,42,17.80
2009,07,03,07,43,17.90
2009,07,03,07,44,18.10
2009,07,03,07,45,18.20
2009,07,03,07,46,18.30
2009,07,03,07,47,18.40
2009,07,03,07,48,18.40
2009,07,03,07,49,18.50
2009,07,03,07,50,18.60
2009,07,03,07,51,18.60
2009,07,03,07,52,18.70
2009,07,03,07,53,18.70
2009,07,03,07,54,18.70
2009,07,03,07,55,18.80
2009,07,03,07,56,18.90
2009,07,03,07,57,18.90
2009,07,03,07,58,18.80
2009,07,03,07,59,18.80
2009,07,03,08,00,18.70
2009,07,03,08,01,18.70
2009,07,03,08,02,18.70
2009,07,03,08,03,18.60
2009,07,03,08,04,18.60
2009,07,03,08,05,18.50
2009,07,03,08,06,18.50
2009,07,03,08,07,18.50
2009,07,03,08,08,18.40
2009,07,03,08,09,18.50
2009,07,03,08,10,18.50
2009,07,03,08,11,18.60
2009,07,03,08,12,18.60
2009,07,03,08,13,18.70
2009,07,03,08,14,18.80
2009,07,03,08,15,18.90
2009,07,03,08,16,18.90
2009,07,03,08,17,19.00
2009,07,03,08,18,19.10
2009,07,03,08,19,19.10
2009,07,03,08,20,19.10
2009,07,03,08,21,19.10
2009,07,03,08,22,19.10
2009,07,03,08,23,19.10
2009,07,03,08,24,19.10
2009,07,03,08,25,19.00
2009,07,03,08,26,18.90
2009,07,03,08,27,18.90
2009,07,03,08,28,18.90
2009,07,03,08,29,18.90
2009,07,03,08,30,18.90
2009,07,03,08,31,18.90
2009,07,03,08,32,18.90
2009,07,03,08,33,18.90
2009,07,03,08,34,18.90
2009,07,03,08,35,18.90
2009,07,03,08,36,19.00
2009,07,03,08,37,19.10
2009,07,03,08,38,19.20
2009,07,03,08,39,19.30
2009,07,03,08,40,19.50
2009,07,03,08,41,19.60
2009,07,03,08,42,19.70
2009,07,03,08,43,19.80
2009,07,03,08,44,19.90
2009,07,03,08,45,20.00
2009,07,03,08,46,20.10
2009,07,03,08,47,20.20
2009,07,03,08,48,20.30
2009,07,03,08,49,20.40
2009,07,03,08,50,20.40
2009,07,03,08,51,20.50
2009,07,03,08,52,20.60
2009,07,03,08,53,20.60
2009,07,03,08,54,20.60
2009,07,03,08,55,20.60
2009,07,03,08,56,20.50
2009,07,03,08,57,20.40
2009,07,03,08,58,20.30
2009,07,03,08,59,20.30
2009,07,03,09,00,20.30
2009,07,03,09,01,20.30
2009,07,03,09,02,20.40
2009,07,03,09,03,20.50
2009,07,03,09,04,20.50
2009,07,03,09,05,20.60
2009,07,03,09,06,20.70
2009,07,03,09,07,20.80
2009,07,03,09,08,20.60
2009,07,03,09,09,20.50
2009,07,03,09,10,20.40
2009,07,03,09,11,20.40
2009,07,03,09,12,20.50
2009,07,03,09,13,20.50
2009,07,03,09,14,20.50
2009,07,03,09,15,20.60
2009,07,03,09,16,20.60
2009,07,03,09,17,20.50
2009,07,03,09,18,20.50
2009,07,03,09,19,20.40
2009,07,03,09,20,20.40
2009,07,03,09,21,20.40
2009,07,03,09,22,20.50
2009,07,03,09,23,20.60
2009,07,03,09,24,20.60
2009,07,03,09,25,20.70
2009,07,03,09,26,20.70
2009,07,03,09,27,20.80
2009,07,03,09,28,20.80
2009,07,03,09,29,21.00
2009,07,03,09,30,21.00
2009,07,03,09,31,21.10
2009,07,03,09,32,21.20
2009,07,03,09,33,21.20
2009,07,03,09,34,21.10
2009,07,03,09,35,21.00
2009,07,03,09,36,20.90
2009,07,03,09,37,20.80
2009,07,03,09,38,20.60
2009,07,03,09,39,20.40
2009,07,03,09,40,20.30
2009,07,03,09,41,20.10
2009,07,03,09,42,20.00
2009,07,03,09,43,19.90
2009,07,03,09,44,19.80
2009,07,03,09,45,19.80
2009,07,03,09,46,19.80
2009,07,03,09,47,19.80
2009,07,03,09,48,19.90
2009,07,03,09,49,19.90
2009,07,03,09,50,19.90
2009,07,03,09,51,19.90
2009,07,03,09,52,20.00
2009,07,03,09,53,20.20
2009,07,03,09,54,20.20
2009,07,03,09,55,20.20
2009,07,03,09,56,20.20
2009,07,03,09,57,20.30
2009,07,03,09,58,20.40
2009,07,03,09,59,20.50
2009,07,03,10,00,20.60
2009,07,03,10,01,20.70
2009,07,03,10,02,20.70
2009,07,03,10,03,20.80
2009,07,03,10,04,20.80
2009,07,03,10,05,20.90
2009,07,03,10,06,20.90
2009,07,03,10,07,21.00
2009,07,03,10,08,21.00
2009,07,03,10,09,20.80
2009,07,03,10,10,20.50
2009,07,03,10,11,20.30
2009,07,03,10,12,20.30
2009,07,03,10,13,20.40
2009,07,03,10,14,20.50
2009,07,03,10,15,20.50
2009,07,03,10,16,20.60
2009,07,03,10,17,20.70
2009,07,03,10,18,20.70
2009,07,03,10,19,20.70
2009,07,03,10,20,20.50
2009,07,03,10,21,20.30
2009,07,03,10,22,20.10
2009,07,03,10,23,19.90
2009,07,03,10,24,19.90
2009,07,03,10,25,19.90
2009,07,03,10,26,19.90
2009,07,03,10,27,19.90
2009,07,03,10,28,19.90
2009,07,03,10,29,19.90
2009,07,03,10,30,19.90
2009,07,03,10,31,20.10
2009,07,03,10,32,20.10
2009,07,03,10,33,20.20
2009,07,03,10,34,20.20
2009,07,03,10,35,20.20
2009,07,03,10,36,20.20
2009,07,03,10,37,20.20
2009,07,03,10,38,20.30
2009,07,03,10,39,20.40
2009,07,03,10,40,20.40
2009,07,03,10,41,20.20
2009,07,03,10,42,20.20
2009,07,03,10,43,20.20
2009,07,03,10,44,20.20
2009,07,03,10,45,20.20
2009,07,03,10,46,20.20
2009,07,03,10,47,20.20
2009,07,03,10,48,20.20
2009,07,03,10,49,20.30
2009,07,03,10,50,20.40
2009,07,03,10,51,20.50
2009,07,03,10,52,20.60
2009,07,03,10,53,20.60
2009,07,03,10,54,20.50
2009,07,03,10,55,20.60
2009,07,03,10,56,20.60
2009,07,03,10,57,20.70
2009,07,03,10,58,20.80
2009,07,03,10,59,20.90
2009,07,03,11,00,21.00
2009,07,03,11,01,21.10
2009,07,03,11,02,21.20
2009,07,03,11,03,21.20
2009,07,03,11,04,21.00
2009,07,03,11,05,20.90
2009,07,03,11,06,20.80
2009,07,03,11,07,20.50
2009,07,03,11,08,20.30
2009,07,03,11,09,20.30
2009,07,03,11,10,20.40
2009,07,03,11,11,20.50
2009,07,03,11,12,20.70
2009,07,03,11,13,20.70
2009,07,03,11,14,20.70
2009,07,03,11,15,20.70
2009,07,03,11,16,20.80
2009,07,03,11,17,20.80
2009,07,03,11,18,20.80
2009,07,03,11,19,20.70
2009,07,03,11,20,20.60
2009,07,03,11,21,20.60
2009,07,03,11,22,20.70
2009,07,03,11,23,20.80
2009,07,03,11,24,20.70
2009,07,03,11,25,20.80
2009,07,03,11,26,20.90
2009,07,03,11,27,21.00
2009,07,03,11,28,21.10
2009,07,03,11,29,21.20
2009,07,03,11,30,21.30
2009,07,03,11,31,21.50
2009,07,03,11,32,21.60
2009,07,03,11,33,21.60
2009,07,03,11,34,21.70
2009,07,03,11,35,21.80
2009,07,03,11,36,21.80
2009,07,03,11,37,21.90
2009,07,03,11,38,21.90
2009,07,03,11,39,21.80
2009,07,03,11,40,21.80
2009,07,03,11,41,21.60
2009,07,03,11,42,21.60
2009,07,03,11,43,21.60
2009,07,03,11,44,21.60
2009,07,03,11,45,21.60
2009,07,03,11,46,21.70
2009,07,03,11,47,21.80
2009,07,03,11,48,21.80
2009,07,03,11,49,21.90
2009,07,03,11,50,21.80
2009,07,03,11,51,21.80
2009,07,03,11,52,21.90
2009,07,03,11,53,22.00
2009,07,03,11,54,22.10
2009,07,03,11,55,22.10
2009,07,03,11,56,22.00
2009,07,03,11,57,21.90
2009,07,03,11,58,21.80
2009,07,03,11,59,21.80
2009,07,03,12,00,21.80
2009,07,03,12,01,21.70
2009,07,03,12,02,21.60
2009,07,03,12,03,21.50
2009,07,03,12,04,21.40
2009,07,03,12,05,21.30
2009,07,03,12,06,21.30
2009,07,03,12,07,21.30
2009,07,03,12,08,21.40
2009,07,03,12,09,21.60
2009,07,03,12,10,21.70
2009,07,03,12,11,21.80
2009,07,03,12,12,21.90
2009,07,03,12,13,22.00
2009,07,03,12,14,22.10
2009,07,03,12,15,22.10
2009,07,03,12,16,22.00
2009,07,03,12,17,22.10
2009,07,03,12,18,22.10
2009,07,03,12,19,22.20
2009,07,03,12,20,22.30
2009,07,03,12,21,22.40
2009,07,03,12,22,22.50
2009,07,03,12,23,22.40
2009,07,03,12,24,22.50
2009,07,03,12,25,22.50
2009,07,03,12,26,22.60
2009,07,03,12,27,22.60
2009,07,03,12,28,22.70
2009,07,03,12,29,22.70
2009,07,03,12,30,22.70
2009,07,03,12,31,22.60
2009,07,03,12,32,22.40
2009,07,03,12,33,22.40
2009,07,03,12,34,22.50
2009,07,03,12,35,22.40
2009,07,03,12,36,22.30
2009,07,03,12,37,22.30
2009,07,03,12,38,22.30
2009,07,03,12,39,22.30
2009,07,03,12,40,22.30
2009,07,03,12,41,22.20
2009,07,03,12,42,22.10
2009,07,03,12,43,22.10
2009,07,03,12,44,22.10
2009,07,03,12,45,22.10
2009,07,03,12,46,22.00
2009,07,03,12,47,21.90
2009,07,03,12,48,21.90
2009,07,03,12,49,21.90
2009,07,03,12,50,21.90
2009,07,03,12,51,22.00
2009,07,03,12,52,22.00
2009,07,03,12,53,22.00
2009,07,03,12,54,22.10
2009,07,03,12,55,22.20
2009,07,03,12,56,22.40
2009,07,03,12,57,22.50
2009,07,03,12,58,22.80
2009,07,03,12,59,23.10
2009,07,03,13,00,23.30
2009,07,03,13,01,23.50
2009,07,03,13,02,23.60
2009,07,03,13,03,23.80
2009,07,03,13,04,23.90
2009,07,03,13,05,24.00
2009,07,03,13,06,24.10
2009,07,03,13,07,24.20
2009,07,03,13,08,24.30
2009,07,03,13,09,24.40
2009,07,03,13,10,24.50
2009,07,03,13,11,24.50
2009,07,03,13,12,24.60
2009,07,03,13,13,24.60
2009,07,03,13,14,24.60
2009,07,03,13,15,24.60
2009,07,03,13,16,24.60
2009,07,03,13,17,24.70
2009,07,03,13,18,24.80
2009,07,03,13,19,24.80
2009,07,03,13,20,24.90
2009,07,03,13,21,25.00
2009,07,03,13,22,24.90
2009,07,03,13,23,24.70
2009,07,03,13,24,24.60
2009,07,03,13,25,24.50
2009,07,03,13,26,24.50
2009,07,03,13,27,24.30
2009,07,03,13,28,24.20
2009,07,03,13,29,24.20
2009,07,03,13,30,24.20
2009,07,03,13,31,24.30
2009,07,03,13,32,24.20
2009,07,03,13,33,24.30
2009,07,03,13,34,24.30
2009,07,03,13,35,24.30
2009,07,03,13,36,24.30
2009,07,03,13,37,24.30
2009,07,03,13,38,24.20
2009,07,03,13,39,24.20
2009,07,03,13,40,24.10
2009,07,03,13,41,24.10
2009,07,03,13,42,24.10
2009,07,03,13,43,24.10
2009,07,03,13,44,24.10
2009,07,03,13,45,24.10
2009,07,03,13,46,24.10
2009,07,03,13,47,23.90
2009,07,03,13,48,23.80
2009,07,03,13,49,23.70
2009,07,03,13,50,23.70
2009,07,03,13,51,23.70
2009,07,03,13,52,23.80
2009,07,03,13,53,23.90
2009,07,03,13,54,23.80
2009,07,03,13,55,23.70
2009,07,03,13,56,23.70
2009,07,03,13,57,23.70
2009,07,03,13,58,23.70
2009,07,03,13,59,23.80
2009,07,03,14,00,23.90
2009,07,03,14,01,24.00
2009,07,03,14,02,24.10
2009,07,03,14,03,24.10
2009,07,03,14,04,24.10
2009,07,03,14,05,24.20
2009,07,03,14,06,24.20
2009,07,03,14,07,24.30
2009,07,03,14,08,24.30
2009,07,03,14,09,24.40
2009,07,03,14,10,24.40
2009,07,03,14,11,24.40
2009,07,03,14,12,24.40
2009,07,03,14,13,24.50
2009,07,03,14,14,24.50
2009,07,03,14,15,24.50
2009,07,03,14,16,24.50
2009,07,03,14,17,24.50
2009,07,03,14,18,24.50
2009,07,03,14,19,24.50
2009,07,03,14,20,24.60
2009,07,03,14,21,24.70
2009,07,03,14,22,24.80
2009,07,03,14,23,24.80
2009,07,03,14,24,24.90
2009,07,03,14,25,24.90
2009,07,03,14,26,25.00
2009,07,03,14,27,25.00
2009,07,03,14,28,25.00
2009,07,03,14,29,25.10
2009,07,03,14,30,25.00
2009,07,03,14,31,25.00
2009,07,03,14,32,25.00
2009,07,03,14,33,25.00
2009,07,03,14,34,25.00
2009,07,03,14,35,25.00
2009,07,03,14,36,25.10
2009,07,03,14,37,25.20
2009,07,03,14,38,25.20
2009,07,03,14,39,25.20
2009,07,03,14,40,25.20
2009,07,03,14,41,25.30
2009,07,03,14,42,25.30
2009,07,03,14,43,25.30
2009,07,03,14,44,25.30
2009,07,03,14,45,25.30
2009,07,03,14,46,25.20
2009,07,03,14,47,25.20
2009,07,03,14,48,25.10
2009,07,03,14,49,24.70
2009,07,03,14,50,24.50
2009,07,03,14,51,24.40
2009,07,03,14,52,24.30
2009,07,03,14,53,24.30
2009,07,03,14,54,24.20
2009,07,03,14,55,24.10
2009,07,03,14,56,24.20
2009,07,03,14,57,24.30
2009,07,03,14,58,24.30
2009,07,03,14,59,24.40
2009,07,03,15,00,24.50
2009,07,03,15,01,24.60
2009,07,03,15,02,24.80
2009,07,03,15,03,24.80
2009,07,03,15,04,24.80
2009,07,03,15,05,24.80
2009,07,03,15,06,24.50
2009,07,03,15,07,24.20
2009,07,03,15,08,24.00
2009,07,03,15,09,23.90
2009,07,03,15,10,24.00
2009,07,03,15,11,24.10
2009,07,03,15,12,24.20
2009,07,03,15,13,24.30
2009,07,03,15,14,24.40
2009,07,03,15,15,24.50
2009,07,03,15,16,24.50
2009,07,03,15,17,24.50
2009,07,03,15,18,24.60
2009,07,03,15,19,24.70
2009,07,03,15,20,24.80
2009,07,03,15,21,24.80
2009,07,03,15,22,24.60
2009,07,03,15,23,24.50
2009,07,03,15,24,24.50
2009,07,03,15,25,24.60
2009,07,03,15,26,24.60
2009,07,03,15,27,24.50
2009,07,03,15,28,24.50
2009,07,03,15,29,24.50
2009,07,03,15,30,24.50
2009,07,03,15,31,24.50
2009,07,03,15,32,24.60
2009,07,03,15,33,24.40
2009,07,03,15,34,24.20
2009,07,03,15,35,24.20
2009,07,03,15,36,24.20
2009,07,03,15,37,24.20
2009,07,03,15,38,24.10
2009,07,03,15,39,24.10
2009,07,03,15,40,24.10
2009,07,03,15,41,24.10
2009,07,03,15,42,24.10
2009,07,03,15,43,24.10
2009,07,03,15,44,24.00
2009,07,03,15,45,23.90
2009,07,03,15,46,23.70
2009,07,03,15,47,23.70
2009,07,03,15,48,23.70
2009,07,03,15,49,23.70
2009,07,03,15,50,23.70
2009,07,03,15,51,23.80
2009,07,03,15,52,23.80
2009,07,03,15,53,23.70
2009,07,03,15,54,23.70
2009,07,03,15,55,23.70
2009,07,03,15,56,23.70
2009,07,03,15,57,23.70
2009,07,03,15,58,23.70
2009,07,03,15,59,23.80
2009,07,03,16,00,23.80
2009,07,03,16,01,23.70
2009,07,03,16,02,23.60
2009,07,03,16,03,23.30
2009,07,03,16,04,23.10
2009,07,03,16,05,23.00
2009,07,03,16,06,22.90
2009,07,03,16,07,22.90
2009,07,03,16,08,22.90
2009,07,03,16,09,23.10
2009,07,03,16,10,23.10
2009,07,03,16,11,23.20
2009,07,03,16,12,23.20
2009,07,03,16,13,23.20
2009,07,03,16,14,23.20
2009,07,03,16,15,23.20
2009,07,03,16,16,23.30
2009,07,03,16,17,23.30
2009,07,03,16,18,23.20
2009,07,03,16,19,23.20
2009,07,03,16,20,23.20
2009,07,03,16,21,23.10
2009,07,03,16,22,22.90
2009,07,03,16,23,22.90
2009,07,03,16,24,22.90
2009,07,03,16,25,23.00
2009,07,03,16,26,23.00
2009,07,03,16,27,22.90
2009,07,03,16,28,22.90
2009,07,03,16,29,22.90
2009,07,03,16,30,22.90
2009,07,03,16,31,22.90
2009,07,03,16,32,22.90
2009,07,03,16,33,23.10
2009,07,03,16,34,23.10
2009,07,03,16,35,23.20
2009,07,03,16,36,23.30
2009,07,03,16,37,23.20
2009,07,03,16,38,23.20
2009,07,03,16,39,23.10
2009,07,03,16,40,22.90
2009,07,03,16,41,22.70
2009,07,03,16,42,22.60
2009,07,03,16,43,22.40
2009,07,03,16,44,22.30
2009,07,03,16,45,22.20
2009,07,03,16,46,22.10
2009,07,03,16,47,22.20
2009,07,03,16,48,22.20
2009,07,03,16,49,22.20
2009,07,03,16,50,22.20
2009,07,03,16,51,22.30
2009,07,03,16,52,22.30
2009,07,03,16,53,22.30
2009,07,03,16,54,22.40
2009,07,03,16,55,22.50
2009,07,03,16,56,22.60
2009,07,03,16,57,22.70
2009,07,03,16,58,22.80
2009,07,03,16,59,22.90
2009,07,03,17,00,22.90
2009,07,03,17,01,23.00
2009,07,03,17,02,23.10
2009,07,03,17,03,23.10
2009,07,03,17,04,23.20
2009,07,03,17,05,23.30
2009,07,03,17,06,23.40
2009,07,03,17,07,23.50
2009,07,03,17,08,23.60
2009,07,03,17,09,23.70
2009,07,03,17,10,23.70
2009,07,03,17,11,23.70
2009,07,03,17,12,23.70
2009,07,03,17,13,23.70
2009,07,03,17,14,23.70
2009,07,03,17,15,23.70
2009,07,03,17,16,23.80
2009,07,03,17,17,23.80
2009,07,03,17,18,23.80
2009,07,03,17,19,23.80